This is the latest recevied weather packets stored in our database for station/object K0APR. If no packets are shown the sender has not sent any weather packets the latest 1 day(s).
| Time | Temp. | Humidity | Pressure | Rain* | Wind** | Luminosity | Snow |
|---|---|---|---|---|---|---|---|
| 1778063270 | 3.33° C | 64% | 1016.1 hPa | 0 mm | 3.58 m/s, 314° | 0 W/m² | - |
| 1778062968 | 3.33° C | 64% | 1015.8 hPa | 0 mm | 3.58 m/s, 337° | 0 W/m² | - |
| 1778062665 | 3.33° C | 65% | 1015.8 hPa | 0 mm | 3.13 m/s, 324° | 0 W/m² | - |
| 1778062361 | 3.33° C | 65% | 1015.5 hPa | 0 mm | 2.68 m/s, 335° | 0 W/m² | - |
| 1778062059 | 3.33° C | 65% | 1015.8 hPa | 0 mm | 3.13 m/s, 328° | 0 W/m² | - |
| 1778061757 | 3.33° C | 65% | 1015.8 hPa | 0 mm | 3.58 m/s, 307° | 0 W/m² | - |
| 1778061456 | 3.33° C | 65% | 1015.8 hPa | 0 mm | 3.13 m/s, 322° | 0 W/m² | - |
| 1778061152 | 3.33° C | 64% | 1015.8 hPa | 0 mm | 3.13 m/s, 335° | 0 W/m² | - |
| 1778060849 | 3.33° C | 64% | 1016.1 hPa | 0 mm | 2.68 m/s, 327° | 0 W/m² | - |
| 1778060547 | 3.89° C | 64% | 1016.1 hPa | 0 mm | 3.13 m/s, 319° | 0 W/m² | - |
| 1778060246 | 3.89° C | 63% | 1016.1 hPa | 0 mm | 4.02 m/s, 320° | 0 W/m² | - |
| 1778059942 | 3.89° C | 64% | 1016.5 hPa | 0 mm | 2.24 m/s, 312° | 0 W/m² | - |
| 1778059640 | 3.89° C | 64% | 1016.1 hPa | 0 mm | 2.68 m/s, 321° | 0 W/m² | - |
| 1778059337 | 3.89° C | 64% | 1015.8 hPa | 0 mm | 1.34 m/s, 322° | 0 W/m² | - |
| 1778059035 | 3.89° C | 64% | 1015.5 hPa | 0 mm | 1.34 m/s, 301° | 0 W/m² | - |
| 1778058732 | 3.89° C | 63% | 1015.5 hPa | 0 mm | 3.13 m/s, 334° | 0 W/m² | - |
| 1778058430 | 3.89° C | 63% | 1015.5 hPa | 0 mm | 3.13 m/s, 328° | 0 W/m² | - |
| 1778058126 | 3.89° C | 63% | 1015.5 hPa | 0 mm | 2.24 m/s, 322° | 0 W/m² | - |
| 1778057823 | 3.89° C | 62% | 1015.5 hPa | 0 mm | 3.13 m/s, 310° | 0 W/m² | - |
| 1778057519 | 3.89° C | 62% | 1015.5 hPa | 0 mm | 2.68 m/s, 336° | 0 W/m² | - |
| 1778057216 | 3.89° C | 62% | 1015.5 hPa | 0 mm | 2.24 m/s, 322° | 0 W/m² | - |
| 1778056912 | 3.89° C | 61% | 1015.5 hPa | 0 mm | 3.13 m/s, 319° | 0 W/m² | - |
| 1778056609 | 3.89° C | 61% | 1015.5 hPa | 0 mm | 2.24 m/s, 316° | 0 W/m² | - |
| 1778056308 | 3.89° C | 61% | 1015.5 hPa | 0 mm | 2.24 m/s, 325° | 0 W/m² | - |
| 1778056005 | 3.89° C | 61% | 1015.5 hPa | 0 mm | 1.79 m/s, 322° | 0 W/m² | - |
* Rain latest hour (hover to see other rain measurements)
** Current wind speed in m/s (hover to see current wind gust speed)